Flag for U.S.A. Weather past 2 weeks in Oakland, California, U.S.A.

Now
53 °F

Passing clouds.


Feels Like: 53 °F
Forecast: 51 / 71 °F
Wind: No wind

Location: Metro Oakland International Airport


UV Index: 5 (Moderate)

Visibility: 10 mi


Pressure: 30.12 "Hg

Humidity: 83%

Dew point: 48 °F

Location of OaklandLocation

Historic Weather in Oakland

°F

Oakland temperature yesterday

Maximum temperature yesterday: 64 °F (at 12:53 PM)
Minimum temperature yesterday: 53 °F (at 12:53 AM)
Average temperature yesterday: 57 °F

Past Weeks' High & Low Weather Summary

 TemperatureHumidityPressure
High78 °F (Apr 7, 2:53 PM)90% (Apr 6, 4:53 AM)30.24 "Hg (Apr 6, 4:53 AM)
Low46 °F (Apr 5, 5:53 AM)37% (Apr 7, 2:53 PM)29.80 "Hg (Apr 17, 4:53 AM)
Average59 °F71%30.01 "Hg
* Reported Apr 5 3:53 AM — Apr 20 3:53 AM, Oakland, Weather by CustomWeather, © 2014

Note: Actual official high and low records may vary slightly from our data, if they occured in-between our weather recording intervals... More about our weather records

Advertising

Historic Weather Conditions — Data for Previous 24 hours

 ConditionsComfort  
Time TempWeatherWind HumidityBarometerVisibility
3:53 AM
Apr 20
53 °FPassing clouds.No wind83%30.12 "Hg10 mi
2:53 AM54 °FPassing clouds.No wind83%30.12 "Hg10 mi
1:53 AM54 °FPassing clouds.No wind83%30.13 "Hg10 mi
12:53 AM55 °FPassing clouds.5 mph80%30.13 "Hg10 mi
11:53 PM
Apr 19
56 °FLow clouds.No wind81%30.13 "Hg10 mi
10:53 PM56 °FPassing clouds.No wind81%30.13 "Hg10 mi
9:53 PM57 °FLow clouds.7 mph81%30.13 "Hg10 mi
8:53 PM56 °FLow clouds.13 mph84%30.12 "Hg10 mi
7:53 PM57 °FMostly cloudy.16 mph83%30.11 "Hg10 mi
6:53 PM58 °FPartly sunny.21 mph81%30.10 "Hg10 mi
5:53 PM60 °FPartly sunny.23 mph75%30.10 "Hg10 mi
4:53 PM62 °FScattered clouds.22 mph67%30.11 "Hg10 mi
3:53 PM64 °FScattered clouds.21 mph63%30.11 "Hg10 mi
2:53 PM63 °FScattered clouds.13 mph63%30.12 "Hg10 mi
1:53 PM63 °FScattered clouds.14 mph56%30.12 "Hg10 mi
12:53 PM64 °FScattered clouds.18 mph52%30.10 "Hg10 mi
11:53 AM62 °FScattered clouds.12 mph54%30.10 "Hg10 mi
10:53 AM60 °FScattered clouds.9 mph56%30.10 "Hg10 mi
9:53 AM58 °FScattered clouds.8 mph62%30.09 "Hg10 mi
8:53 AM56 °FScattered clouds.9 mph67%30.07 "Hg10 mi
7:53 AM54 °FScattered clouds.7 mph72%30.05 "Hg10 mi
6:53 AM53 °FPassing clouds.10 mph74%30.03 "Hg10 mi
5:53 AM53 °FPassing clouds.8 mph74%30.01 "Hg10 mi
Weather by CustomWeather, © 2014

See weather overview